Starlink 30708

operational
NORAD ID: 57944 Int'l Des: 2023-148 Owner: SPXS Country: US Constellation: starlink
LEOCIRCULAR

About Starlink 30708

Description loading...

Live Position

Loading 3D Globe...

Upcoming Passes

Altitude History

Altitude vs Time

uPlot chart will show altitude changes over time

Two-Line Element Set

1 57944U 23148K 25305.61357320 .00000864 00000-0 41295-4 0 9992
2 57944 53.1610 259.1603 0001076 88.4805 271.6319 15.30193154118810
Epoch: Nov 1, 2025 • Age: 24 hours

Current Status

Altitude 480.3 km
Velocity 7.63 km/s
Sub-Earth Point 49.99°N, 56.65°E
Launch Date Sep 25, 2023
Age 2.1 years
Type internet

Technical Details

Classification Payload
Mass 730.00 kg
Dry Mass 700.00 kg
Total Mass 730.00 kg
Length 0.30 m
Diameter 4.10 m
Span 29.00 m
Shape Box + pan
Manufacturer SPXS
Bus Type Starlink V2M
Phase Status In Orbit
Owner/State SPXS/US

Large Constellations

Loading constellations...